Location: Unspecified
(0.0000°N, 0.0000°E)
Time: 18:37:12
(UTC+00:00)

Altair - Pass Details

Date: 19 July 2024
Orbit: 1502 x 1682 km, 47.2° (Epoch: 15 June)

Event Time Altitude Azimuth Distance (km) Brightness Sun altitude
Rises 04:35:10 0° 298° (WNW) 4,708 - -21.2°
Reaches altitude 10° 04:38:37 10° 288° (WNW) 3,752 - -20.5°
Exits shadow 04:43:09 25° 264° (W) 2,764 8.3 -19.4°
Maximum altitude 04:46:49 33° 228° (SW) 2,472 8.1 -18.6°
Drops below altitude 10° 04:55:21 10° 168° (SSE) 3,882 9.5 -16.6°
Sets 04:59:02 0° 159° (SSE) 4,893 10.1 -15.7°
